Wind_Speed
5 3 4 8 9 8 7 8 11 10 5 4 4 5 7 7 11 9 5 5 5 6 11 14 17 18 15 12 12 24 31 22 17 17 19 25 27 28 29 32 34 35 37 36 35 36 33 32 31 31 33 34 36 37 39 40 40 39 39 41 43 43 42 42 41 40 40 40 39 38 38 38 37 35 33 33 33 32 32 31 32 32 32 32 30 29
2 4 10 10 5 5 7 8 10 11 9 9 7 8 8 7 9 7 3 6 2 5 12 11 12 17 16 12 11 17 21 20 18 15 20 28 31 33 32 33 35 34 35 35 34 33 31 30 30 29 30 31 32 34 36 39 39 38 38 41 43 43 44 43 42 41 41 41 41 40 39 38 36 35 34 34 32 30 29 30 31 31 32 31 30 29
1 7 13 8 4 5 7 7 9 11 11 10 8 8 10 9 8 5 3 5 1 4 9 8 9 15 14 10 12 14 16 23 23 19 25 32 32 35 36 37 39 39 40 42 41 39 37 36 36 35 33 33 33 32 34 36 38 38 38 40 42 43 44 43 42 41 40 40 41 40 37 36 35 35 34 32 29 28 28 29 30 31 31 31 30 29
4 9 10 7 6 6 7 8 8 9 8 8 8 8 11 11 7 4 4 5 3 5 5 4 7 12 9 7 11 16 20 26 28 27 33 35 34 38 40 40 41 42 44 46 47 45 43 42 42 41 39 37 37 36 36 35 37 39 39 39 40 42 44 44 43 41 39 38 39 38 36 35 35 35 34 32 30 29 29 29 30 32 31 30 29 28
10 12 6 8 9 9 10 10 8 7 6 8 11 10 12 12 8 6 5 4 4 5 4 3 8 10 8 8 10 14 16 21 26 28 30 33 39 43 42 42 43 44 46 48 49 46 44 44 43 42 41 40 41 41 40 37 36 39 41 42 42 42 43 44 44 42 39 39 39 39 38 38 39 38 37 35 34 31 29 30 31 32 31 30 28 26
14 17 8 7 10 11 12 10 9 9 7 8 11 14 17 13 7 6 5 4 5 7 5 2 6 11 8 10 11 10 9 15 19 19 23 31 39 41 40 43 46 47 49 52 52 49 47 47 46 44 43 42 43 43 41 38 37 38 41 42 43 44 45 44 44 44 42 41 41 41 43 44 44 44 43 40 37 32 28 28 30 31 31 29 27 26
10 15 10 9 12 11 11 10 10 11 8 8 8 13 17 12 7 8 7 4 4 7 4 4 5 12 10 9 12 11 10 15 16 13 21 29 32 35 39 44 46 47 51 53 54 53 51 51 49 48 46 45 45 42 40 39 39 39 39 40 41 43 44 45 45 45 44 43 42 43 45 46 46 45 43 38 34 30 27 27 29 31 32 30 28 26
6 8 8 10 12 9 8 9 10 11 9 9 6 9 11 11 12 13 11 8 6 6 4 3 5 9 13 10 10 11 10 14 16 15 20 23 25 32 37 42 46 49 52 53 55 55 53 53 52 50 48 46 45 42 40 40 41 40 39 40 41 41 43 43 45 45 46 45 44 45 46 46 46 43 39 35 32 29 27 28 29 31 32 31 29 27
3 4 7 11 11 8 9 10 11 11 8 10 7 6 8 11 13 13 11 8 7 7 5 4 5 6 14 9 3 7 9 12 19 19 18 17 22 30 33 38 45 49 51 53 55 55 53 52 51 50 48 46 45 44 43 42 41 39 39 40 41 42 42 42 43 45 45 46 46 46 48 48 46 44 41 37 35 33 31 30 30 31 33 31 30 29
2 3 4 6 7 8 10 12 12 11 9 10 6 5 6 7 8 9 8 6 6 8 8 8 7 6 13 9 4 4 7 12 16 13 11 13 20 27 30 37 44 47 49 49 51 52 51 50 49 48 48 47 47 46 44 43 41 41 40 40 42 43 43 41 41 43 44 46 48 49 50 50 48 46 44 42 40 38 36 32 30 32 33 32 30 30
9 10 8 4 6 7 7 9 10 10 12 12 6 3 6 6 4 4 4 4 6 8 10 13 12 9 12 9 6 6 7 9 9 7 8 10 15 25 29 34 38 40 43 44 44 45 45 45 45 46 47 47 47 46 45 44 44 44 43 43 44 44 44 43 41 41 42 46 49 51 52 51 50 48 46 45 43 42 39 35 31 33 33 31 30 30
9 10 7 6 12 9 4 5 6 7 10 11 6 4 5 5 4 3 2 4 7 8 10 14 14 12 12 9 6 7 7 6 7 9 10 8 11 20 27 31 34 37 40 41 41 42 42 43 44 45 46 45 44 44 44 45 45 45 45 45 45 46 47 46 44 43 43 45 49 52 53 53 52 51 49 48 46 44 42 36 32 34 34 31 31 31
4 7 6 7 13 13 7 5 4 5 6 8 6 6 5 4 4 5 4 5 7 8 10 12 10 9 12 16 11 9 8 6 6 7 8 9 12 20 25 27 30 33 37 41 42 43 43 44 44 43 43 42 41 41 41 42 44 45 45 45 46 47 48 49 48 47 47 47 49 52 54 54 54 53 52 50 48 45 42 37 34 36 36 33 33 33
2 4 6 5 7 9 10 8 6 5 5 7 8 7 6 5 4 6 6 6 6 8 12 9 8 6 8 15 16 14 15 15 17 21 22 21 22 26 28 26 26 27 29 33 36 40 42 43 43 41 40 39 39 39 38 39 40 42 44 45 47 48 48 48 49 49 50 50 50 51 53 54 55 54 53 52 50 47 43 38 36 37 36 34 34 34
4 4 3 3 1 3 5 7 8 7 6 7 8 7 8 6 4 4 4 6 5 6 8 6 7 7 7 12 10 9 15 19 25 33 33 30 31 32 32 32 31 31 30 30 29 31 33 34 37 38 38 38 37 37 37 37 38 40 42 44 46 48 48 49 49 50 50 51 51 51 52 53 54 53 53 52 49 47 43 39 37 38 36 34 34 33
3 5 1 2 6 4 2 5 5 6 7 6 6 7 9 8 6 6 5 5 4 4 5 4 5 4 5 15 11 6 9 10 13 21 19 21 28 29 30 33 37 39 40 40 38 35 29 24 25 28 29 32 33 34 35 35 36 38 40 42 44 45 46 47 48 49 49 49 49 50 51 52 52 51 51 51 49 47 43 38 37 37 35 33 33 30
1 3 3 9 10 1 1 6 4 5 4 4 7 9 9 8 7 8 8 5 4 6 5 4 5 2 3 15 12 10 13 7 8 15 11 14 23 23 23 28 31 34 37 39 42 42 37 29 27 28 29 29 28 31 33 34 34 35 37 40 41 43 44 45 46 46 46 46 48 49 50 51 51 51 50 49 48 46 41 36 37 36 33 32 31 28
1 5 6 8 8 2 7 12 8 7 4 2 6 6 6 6 5 5 6 6 7 7 5 7 8 5 5 9 5 4 11 11 13 16 13 15 18 18 23 27 26 28 29 31 34 37 37 35 34 33 33 31 27 27 30 32 32 33 34 36 39 40 42 43 43 43 44 46 48 50 51 51 50 50 49 47 46 43 39 37 38 35 33 32 30 26
1 3 5 3 6 7 9 9 7 4 4 3 5 4 2 5 5 5 6 6 7 7 6 9 10 7 8 10 6 4 5 6 8 9 9 12 12 13 23 30 31 32 33 33 34 34 33 32 31 29 29 30 28 25 27 29 30 32 33 34 36 38 39 39 40 41 43 45 48 50 50 50 49 48 47 46 44 40 39 39 38 35 34 32 29 27
2 1 3 1 3 8 6 1 3 4 2 1 4 4 2 4 4 5 6 4 5 7 6 9 10 7 7 10 13 12 8 6 7 9 9 11 11 14 21 27 33 35 34 34 34 34 33 32 30 27 26 28 28 25 25 28 29 31 32 33 35 37 38 39 40 41 43 45 47 48 49 48 47 46 46 44 42 39 40 39 37 36 34 32 30 28
2 2 4 2 5 6 4 2 0 2 3 3 3 4 4 4 4 4 4 5 5 7 7 8 8 5 6 8 11 11 8 7 7 9 10 11 16 21 23 25 28 30 30 31 33 32 33 34 31 26 26 28 27 25 24 26 28 29 31 33 35 36 38 39 40 41 42 43 45 47 47 47 46 45 44 42 40 40 40 39 37 36 34 31 29 28
2 2 4 3 3 4 6 4 3 3 4 3 3 3 3 2 4 5 4 4 4 5 6 7 8 5 3 2 1 5 6 6 7 9 9 12 18 25 29 30 29 27 25 26 29 31 32 32 27 22 26 29 28 27 26 25 26 29 31 33 35 37 38 39 39 40 41 42 43 44 45 44 43 42 41 40 40 41 40 39 37 35 33 30 28 27
4 2 4 5 5 6 8 8 8 8 7 6 5 1 1 0 0 1 3 3 4 6 6 6 7 6 2 6 9 9 8 8 11 13 11 14 22 28 34 40 42 36 27 23 23 24 25 24 20 20 25 28 28 28 27 26 26 27 29 31 33 35 37 37 37 38 38 39 40 41 41 40 39 39 40 40 41 41 40 38 37 35 32 30 29 28
5 2 3 5 4 6 8 8 7 7 6 5 2 3 3 0 1 2 3 4 4 6 5 4 6 6 4 8 9 9 11 12 14 19 17 16 25 32 35 38 42 41 34 25 20 16 15 15 15 19 21 22 24 25 25 25 25 25 27 29 30 32 34 34 35 35 36 36 36 37 37 37 38 39 40 41 41 40 39 37 36 34 32 31 30 29
3 2 2 2 4 5 6 6 3 2 1 1 1 2 1 1 1 1 3 2 3 5 3 1 4 5 2 8 8 9 14 15 15 22 24 20 24 31 34 36 39 42 40 30 20 13 9 7 8 11 13 13 16 19 20 21 22 23 25 26 27 28 29 31 32 33 33 33 34 35 35 36 37 39 39 40 39 38 37 36 35 33 32 31 30 28
3 2 3 3 4 5 5 4 3 1 1 1 1 2 3 2 2 3 3 2 4 6 3 1 5 10 14 16 12 10 14 16 16 23 27 25 26 31 33 36 39 42 43 37 25 14 10 8 6 5 6 9 11 13 15 17 18 20 21 21 22 24 26 28 30 31 31 32 32 33 34 35 37 38 38 38 37 37 36 36 34 33 33 32 30 29
2 2 5 7 9 9 9 9 5 0 3 5 6 6 5 4 4 4 3 3 4 6 7 6 6 12 19 19 16 14 14 15 15 17 21 24 28 32 33 35 39 41 43 42 31 18 11 11 10 9 8 8 8 8 10 12 14 16 17 18 19 21 24 27 28 29 30 30 31 32 33 35 36 36 36 36 36 36 36 35 34 33 33 31 30 29
3 4 8 9 13 13 9 10 7 3 6 10 10 10 8 7 7 6 6 7 6 5 8 7 3 8 17 19 18 17 14 15 14 12 16 21 25 30 33 35 37 40 42 43 37 26 14 11 14 15 13 11 9 8 8 9 10 12 13 15 17 19 23 25 27 29 29 30 31 32 32 33 33 33 34 35 35 36 35 34 34 33 32 31 30 30
4 6 8 7 12 14 9 11 11 8 10 10 10 12 11 8 9 10 9 9 7 5 8 10 8 9 16 21 20 16 13 13 12 14 18 21 23 27 31 32 33 36 40 42 40 32 22 13 10 13 14 13 10 8 8 8 9 10 11 12 14 18 20 24 27 28 30 31 31 31 31 31 32 33 34 35 36 36 35 34 33 32 31 30 29 29
4 6 7 6 9 14 12 12 12 11 11 10 11 13 12 11 12 12 10 9 9 9 11 15 16 14 16 21 21 17 15 13 13 17 21 20 21 24 27 29 30 32 35 37 37 33 26 20 15 11 10 10 8 9 9 8 8 10 11 12 14 16 19 22 26 28 29 30 29 29 29 31 32 33 35 36 36 35 34 34 33 32 31 30 29 29
5 6 5 6 5 12 14 12 9 9 10 10 11 11 12 13 13 12 11 10 10 11 12 16 17 14 15 17 17 15 13 12 11 15 18 18 20 22 24 27 29 30 31 31 32 31 27 22 19 16 13 8 6 9 10 9 8 9 10 12 14 15 18 21 24 27 28 28 27 28 29 31 32 33 35 35 35 35 34 33 33 32 30 30 29 29
6 3 1 5 5 10 9 5 5 5 3 8 12 13 15 15 12 11 10 9 10 10 12 14 12 11 13 13 11 10 9 8 11 13 15 18 21 21 22 25 27 27 28 27 27 28 28 25 21 18 17 15 11 8 9 9 9 8 8 9 11 14 18 21 23 25 26 26 27 28 29 31 32 34 35 35 35 34 33 33 33 31 30 30 29 28
6 4 3 5 6 7 3 4 6 5 4 5 11 14 16 15 12 12 10 11 13 11 10 11 9 10 14 13 12 12 10 7 9 12 16 20 22 22 22 23 23 23 23 24 24 26 27 26 25 21 16 14 14 13 10 8 7 9 9 7 8 11 16 20 23 25 25 26 27 28 29 30 32 34 35 35 34 33 33 32 32 31 30 30 29 28
6 7 5 4 4 5 2 7 7 5 2 8 7 4 7 11 14 15 14 15 15 12 11 12 10 12 15 13 13 14 13 11 15 20 22 23 23 22 21 20 19 18 20 21 22 23 26 26 25 22 17 13 12 12 10 8 6 7 8 7 6 8 11 16 20 24 26 27 27 26 27 30 32 33 33 33 33 33 32 32 31 31 30 29 29 28
7 7 5 3 4 4 3 6 3 4 8 9 7 5 6 10 13 14 14 14 14 13 14 14 13 14 15 14 15 18 20 22 25 25 25 24 24 23 20 15 14 14 16 18 20 22 24 26 25 23 20 17 14 10 6 5 4 5 6 6 6 5 7 11 16 20 24 26 27 27 28 30 31 32 32 32 33 32 32 31 31 31 30 29 29 28
8 7 4 3 4 3 3 4 4 5 6 9 12 10 8 7 9 10 11 13 14 14 14 13 14 14 15 17 20 24 27 26 22 21 23 23 22 17 11 7 8 11 13 15 18 19 22 24 25 24 22 20 18 13 6 3 3 3 3 4 4 4 5 7 12 16 20 24 26 27 28 28 30 31 31 32 33 32 32 32 32 31 30 30 29 28
9 7 5 4 5 4 5 5 3 4 9 12 15 13 7 7 8 7 7 10 10 10 11 11 12 13 14 17 21 24 25 19 14 14 16 13 9 4 3 4 8 10 10 12 15 16 19 22 23 24 22 20 19 16 11 7 3 2 3 4 4 4 5 6 8 11 15 19 23 25 26 27 29 29 31 32 33 33 32 32 32 31 31 30 30 28
11 9 7 6 6 5 5 5 3 5 8 11 18 15 6 7 8 5 2 6 6 7 10 11 13 15 14 15 19 21 18 13 9 7 4 2 2 5 6 7 8 10 11 13 14 15 17 21 22 23 23 21 19 16 13 11 7 3 2 3 4 4 6 6 7 9 11 14 18 22 25 26 27 29 31 33 33 32 32 32 32 31 31 30 29 28
12 9 7 8 6 5 5 5 6 8 9 12 20 16 3 9 8 2 3 7 9 11 15 14 13 14 14 14 17 14 8 8 8 4 1 4 7 8 10 11 11 11 12 13 14 15 16 18 20 22 23 22 20 18 15 13 10 7 4 4 5 5 6 6 7 9 11 12 13 18 22 25 27 29 30 31 31 31 31 31 31 30 30 29 28 27
12 9 7 7 8 9 9 6 5 7 8 11 16 9 5 10 6 6 2 10 11 12 18 17 13 14 15 16 14 7 4 7 6 3 4 8 8 9 11 14 13 13 13 13 14 14 14 15 18 21 23 23 21 20 19 17 14 10 7 6 6 5 5 5 6 8 11 12 13 16 19 24 27 29 30 30 29 29 30 30 30 30 29 29 28 27
9 9 8 8 9 12 12 8 5 6 8 12 13 5 11 11 5 4 6 9 4 6 13 14 13 15 17 15 10 5 5 5 5 6 7 9 10 10 11 13 14 14 14 14 15 15 15 14 15 17 20 21 21 20 20 19 17 14 11 10 8 7 6 6 7 8 10 12 13 15 17 21 25 28 30 29 28 29 30 30 29 29 28 28 28 28
7 7 7 8 9 9 8 7 6 5 8 13 12 8 14 9 2 6 11 9 7 12 14 13 17 21 19 15 11 8 7 7 8 9 8 8 10 12 12 14 15 15 15 15 15 16 16 15 14 14 16 18 19 18 18 19 18 16 15 14 12 11 11 11 12 12 12 13 13 14 15 18 21 25 28 29 30 31 31 30 29 28 28 28 28 28
10 7 6 7 7 5 5 5 5 7 13 18 13 7 10 7 9 14 13 11 16 21 18 19 25 25 19 15 12 9 9 9 9 10 10 8 9 11 11 13 15 16 17 17 16 16 16 16 15 15 14 14 15 16 16 17 17 17 16 15 14 14 15 16 17 17 16 16 16 16 15 15 17 21 25 28 31 33 33 32 31 30 29 29 29 29
6 7 6 7 8 7 7 9 9 9 12 15 13 7 9 17 23 21 14 11 18 23 21 22 23 18 14 13 11 10 9 8 10 11 11 10 10 10 11 12 14 15 17 18 18 18 18 17 16 15 14 12 12 13 15 16 16 17 16 15 14 14 16 18 19 19 19 17 18 19 18 16 16 18 22 26 29 32 33 34 34 33 32 32 32 32
10 13 9 8 9 9 8 8 10 10 8 10 14 13 14 21 25 22 18 18 21 21 18 18 17 13 12 13 13 13 12 10 11 12 12 11 11 11 11 12 13 14 16 17 18 18 18 18 17 16 14 12 11 11 13 14 16 16 16 16 14 14 15 17 18 20 20 18 18 19 20 19 18 18 20 23 27 31 33 34 35 35 35 35 35 36
11 11 5 2 5 6 5 4 5 9 9 10 14 15 14 17 20 21 23 25 22 18 15 16 16 17 17 17 18 18 17 14 14 13 12 12 12 11 11 12 13 15 15 16 17 18 18 19 18 17 15 14 12 11 11 13 14 15 15 15 15 14 15 16 17 20 20 19 18 19 20 22 22 20 19 21 26 30 32 33 34 35 35 36 37 37
6 9 6 3 5 6 5 7 8 10 10 12 15 18 18 19 20 21 23 24 22 20 18 18 21 24 25 24 23 21 19 17 16 15 13 12 12 13 12 12 13 14 15 16 17 18 19 20 20 19 17 15 15 14 12 12 13 13 14 15 14 13 13 14 16 18 20 21 20 20 20 22 23 23 21 21 24 27 30 32 34 35 36 38 39 38
7 11 8 4 6 6 4 6 7 8 9 12 15 17 17 17 18 19 19 20 20 21 21 22 24 26 27 25 23 21 19 17 16 15 13 12 13 14 12 12 12 13 13 14 16 17 19 20 20 20 18 16 17 17 16 14 14 14 13 14 14 14 14 13 14 15 18 21 22 22 22 21 22 23 24 23 23 25 28 31 34 36 37 39 39 39
8 10 7 5 6 5 4 3 4 3 4 9 13 14 15 15 15 16 17 19 21 23 24 23 23 24 25 24 21 20 19 18 14 11 11 13 14 13 12 11 11 11 13 14 14 16 18 19 20 20 19 18 17 18 18 17 16 15 14 14 14 15 16 16 15 15 17 20 23 25 24 22 21 22 24 25 25 25 26 28 31 34 36 37 37 38
7 6 5 4 5 5 7 6 6 4 3 7 10 13 15 15 16 18 21 22 22 24 24 23 22 22 22 21 20 20 19 16 13 11 11 13 14 13 12 11 10 10 12 13 14 15 17 19 20 20 19 18 17 18 19 19 19 17 15 14 15 16 17 18 18 17 17 18 21 24 25 25 23 21 22 24 25 25 26 26 28 31 33 34 35 36
8 7 7 6 6 8 7 5 7 6 3 8 12 14 16 16 15 17 19 20 20 21 21 20 19 19 19 21 20 18 16 14 12 12 12 13 12 11 10 11 11 11 11 13 15 16 17 19 21 21 20 18 17 18 18 19 20 19 17 15 15 16 17 18 19 19 18 18 20 22 25 27 26 24 24 25 25 26 26 26 27 29 31 32 33 34
Wind_Direction
180 191 218 220 226 215 203 208 227 245 264 269 275 267 251 242 254 249 241 253 189 210 242 229 242 253 248 242 242 255 259 256 249 248 255 260 261 259 255 252 250 249 250 249 248 248 247 246 244 241 240 240 241 240 238 236 235 235 233 230 229 230 231 233 233 233 233 232 231 229 229 227 227 227 229 231 233 236 238 237 235 234 233 234 234 235
145 207 233 230 218 182 187 206 223 239 253 263 265 270 270 250 257 259 250 279 229 217 251 245 252 258 249 246 243 251 260 258 247 242 252 254 256 258 256 255 254 252 251 251 252 249 245 242 242 243 242 241 240 238 236 233 231 232 231 229 228 228 229 230 231 231 232 231 230 229 229 228 228 228 230 232 236 241 244 241 237 233 231 231 231 233
208 233 241 226 169 173 195 207 215 227 233 244 250 257 264 252 262 284 245 272 246 206 256 265 263 261 253 243 244 242 247 256 252 240 245 249 251 253 253 254 254 254 255 255 256 254 250 248 249 249 247 244 242 240 237 232 229 230 231 229 227 228 229 229 229 230 231 231 231 231 231 231 231 231 233 236 241 248 250 246 241 236 232 230 230 232
234 243 238 203 188 199 219 221 210 225 229 229 235 239 253 251 255 280 265 262 236 212 253 288 278 270 260 240 247 243 242 257 260 250 246 248 249 251 252 254 255 256 258 259 260 259 257 255 254 251 248 246 244 242 240 235 230 229 229 228 227 227 228 227 228 229 231 232 232 232 232 232 233 234 236 238 241 246 247 245 241 237 233 230 230 230
248 253 226 187 207 209 222 232 213 223 236 228 228 229 246 249 236 247 280 296 291 269 262 302 295 277 246 227 247 249 243 255 257 252 249 246 247 251 253 253 254 255 257 259 261 260 259 258 256 254 251 248 244 242 240 236 232 230 229 228 228 228 228 227 228 228 230 232 231 230 229 229 230 231 233 234 237 240 241 240 238 236 234 231 230 229
251 254 232 200 221 214 220 232 216 215 234 240 228 225 238 243 231 245 269 289 296 276 241 192 277 278 247 217 237 244 235 246 247 247 249 244 242 246 248 250 251 252 254 256 258 258 258 258 257 256 253 249 245 243 240 236 234 233 232 231 231 231 231 230 229 229 230 232 231 227 225 224 225 226 227 230 234 238 242 243 238 235 234 231 230 227
250 248 220 218 234 224 225 231 220 212 227 250 220 210 232 234 219 234 238 223 234 258 253 162 224 276 274 225 225 229 224 242 244 239 248 245 239 239 241 245 247 248 250 252 254 254 254 254 254 252 250 247 245 243 240 237 234 233 233 233 233 233 232 231 230 230 230 232 231 228 225 224 224 224 227 231 236 242 248 248 241 235 232 230 228 226
231 240 196 212 235 230 231 230 222 210 214 247 215 183 213 215 213 224 225 220 222 250 282 159 191 269 275 245 214 207 211 245 250 239 246 249 243 239 238 242 245 246 248 249 251 251 250 251 250 249 247 245 243 242 241 238 235 233 232 233 233 233 232 232 232 231 231 231 230 226 225 225 226 227 230 235 239 243 248 248 243 235 230 228 225 223
216 227 188 201 222 226 232 234 227 212 218 255 239 184 202 208 211 217 219 225 230 242 249 200 186 251 269 263 170 176 197 236 247 240 243 249 246 243 239 240 244 246 247 248 249 249 249 250 249 247 247 245 244 243 242 240 238 236 233 233 233 232 232 231 231 231 230 229 228 226 225 225 226 229 233 237 240 243 246 247 242 233 227 226 223 220
272 253 228 204 218 225 226 236 233 213 226 256 242 197 226 229 213 213 216 213 220 234 230 211 188 221 267 265 136 151 203 224 243 245 242 248 249 248 244 243 246 248 249 249 250 251 251 251 250 250 249 249 248 246 244 243 241 239 236 234 232 230 230 229 228 228 227 226 227 227 226 226 227 229 232 235 237 240 243 245 240 229 224 223 220 218
254 261 273 241 235 240 230 241 241 221 226 245 248 216 247 248 210 214 219 187 214 236 228 221 202 199 260 264 160 187 221 215 245 266 249 249 249 248 247 245 248 250 251 251 251 252 252 252 252 251 251 250 249 249 247 245 243 241 239 236 234 231 230 229 227 227 226 226 227 228 228 228 229 230 232 234 235 238 240 241 237 227 221 219 219 218
240 251 256 218 225 235 264 265 252 233 224 231 234 217 245 246 201 203 173 179 223 236 223 222 209 197 241 258 173 195 237 217 231 251 252 257 255 252 252 250 250 250 251 253 252 252 252 252 251 249 248 248 247 247 246 244 242 241 239 238 237 236 234 233 232 231 231 230 230 230 230 230 231 232 233 235 236 238 240 240 235 224 218 217 216 217
236 218 213 221 224 221 234 262 266 254 226 227 221 207 228 225 206 213 191 201 223 233 234 221 199 195 239 257 243 240 276 277 248 249 251 256 263 266 265 262 259 257 256 255 254 253 253 253 252 250 249 248 246 245 244 243 242 240 239 237 237 237 237 236 236 235 235 234 234 233 232 232 232 232 234 236 237 240 241 241 236 224 218 216 215 215
277 206 205 215 224 222 222 223 237 233 207 221 215 205 220 207 217 221 197 217 220 229 242 214 186 203 239 257 250 237 253 264 263 263 260 257 261 267 272 274 273 272 269 263 260 259 258 257 256 255 254 253 251 248 245 242 241 240 239 237 236 237 237 237 237 236 236 235 235 235 234 234 233 232 234 235 237 240 241 241 237 226 219 219 218 217
258 267 230 179 263 306 247 234 241 232 212 223 214 211 222 212 235 238 197 221 215 228 243 189 184 206 206 244 242 203 228 241 248 257 262 263 264 265 271 275 274 276 277 275 273 270 266 264 262 261 260 259 257 253 249 244 241 239 238 237 236 236 236 236 236 235 235 235 234 234 234 234 234 234 235 236 238 240 240 240 234 224 220 220 219 219
256 268 351 344 321 343 313 310 300 250 236 234 225 225 225 215 234 253 244 233 205 238 245 178 214 221 222 263 258 188 225 233 243 258 263 267 267 266 265 266 267 270 271 272 273 273 274 272 267 265 265 265 261 255 250 246 242 240 238 237 237 236 236 235 235 235 235 235 235 235 234 234 234 234 234 235 237 238 239 237 228 221 220 219 218 219
268 272 348 335 321 16 43 331 318 243 251 247 231 233 232 222 226 246 258 252 226 246 232 181 238 269 285 276 259 220 239 242 251 260 254 255 264 268 266 263 264 267 268 268 267 268 270 271 271 270 269 269 263 253 246 243 241 240 239 238 237 236 236 236 235 235 234 234 234 234 233 233 233 233 233 234 234 235 235 229 221 219 219 216 216 217
229 284 301 314 300 315 355 330 290 233 214 230 246 251 251 242 234 240 252 243 233 247 237 210 225 205 213 260 273 237 244 235 238 249 253 256 259 266 272 273 275 277 278 277 273 271 270 270 271 270 265 264 262 252 245 241 239 238 237 238 238 236 235 234 234 234 233 233 233 233 232 231 231 231 232 233 233 233 229 219 214 216 216 214 215 214
74 301 277 261 271 301 343 334 299 254 181 200 275 305 265 236 236 224 227 236 232 238 239 229 231 209 203 238 270 283 267 260 261 263 264 264 260 264 272 277 280 281 282 284 281 279 277 275 274 270 262 259 257 251 245 241 239 237 235 236 237 236 235 235 234 232 232 232 232 233 232 231 230 230 230 231 231 228 221 213 211 213 212 213 214 213
111 310 255 193 314 320 334 305 291 328 10 11 310 314 261 239 255 234 226 242 241 238 240 232 232 218 203 236 256 260 266 283 289 282 268 263 261 257 260 267 272 273 275 277 279 281 282 281 278 272 263 258 254 251 248 243 240 238 236 234 234 235 234 233 233 232 231 231 231 232 231 229 228 228 228 229 227 221 214 211 211 211 210 212 213 213
115 192 244 337 2 336 310 231 109 342 331 351 345 323 310 302 321 304 253 243 240 238 239 235 235 219 197 228 251 263 271 270 276 284 282 285 287 283 278 275 276 277 278 278 278 279 281 281 279 270 258 253 250 247 246 245 243 240 237 234 233 234 234 232 232 232 232 231 230 230 229 227 226 226 226 225 221 215 210 210 212 211 211 212 213 215
135 207 245 297 316 277 259 270 322 321 292 293 282 297 320 315 323 312 270 250 254 251 253 248 246 238 205 210 326 0 350 344 355 354 343 336 330 325 327 329 322 308 297 291 286 281 279 281 280 266 252 247 244 243 245 247 245 241 237 235 234 235 235 234 232 232 232 231 229 228 227 225 224 223 222 218 213 210 209 210 211 211 211 212 214 216
177 188 255 262 259 265 275 283 287 278 266 264 256 201 104 108 342 294 275 311 324 306 299 282 254 236 145 68 48 37 26 17 13 12 5 351 350 347 345 348 347 336 321 311 303 291 282 281 276 259 249 246 244 247 249 247 244 241 238 237 235 235 235 234 233 233 232 230 227 226 224 223 221 219 216 211 208 207 208 209 209 209 210 211 214 215
174 164 245 259 287 298 296 295 279 259 242 242 238 103 89 40 100 141 254 301 315 296 301 300 259 218 125 58 36 21 11 8 7 7 4 351 350 349 346 348 351 349 340 329 322 310 289 272 259 253 250 246 245 247 248 248 247 245 241 238 236 235 235 235 234 234 232 228 225 222 221 219 217 214 210 207 206 206 207 207 207 207 209 212 213 214
162 146 159 245 318 320 317 322 295 237 178 149 99 84 126 188 66 26 267 269 264 262 276 326 270 244 301 351 6 16 5 360 357 357 355 350 347 347 345 345 348 352 350 341 335 335 320 288 260 256 254 247 246 248 250 252 250 246 243 241 239 236 235 235 234 232 228 224 220 218 216 214 212 210 208 206 206 206 206 206 206 206 209 212 212 213
153 176 151 177 243 263 268 263 232 204 296 301 252 236 208 200 318 306 276 244 244 268 294 277 270 287 297 310 328 351 355 352 348 348 347 345 344 343 344 345 345 350 353 348 339 341 353 350 328 305 287 268 259 255 255 255 252 249 248 245 242 238 234 233 232 229 224 218 215 212 210 208 208 207 207 207 206 206 205 205 205 207 210 212 211 212
107 209 205 195 215 231 232 235 237 22 289 278 268 254 240 246 263 249 233 240 254 284 289 252 251 290 292 299 316 329 342 346 341 342 339 336 340 341 339 342 346 348 351 351 344 338 1 22 14 2 351 323 297 276 264 260 257 254 251 247 243 238 234 232 230 224 218 214 211 208 206 206 206 207 208 208 207 206 205 204 206 209 211 211 211 211
106 233 221 204 223 234 227 236 252 253 250 261 269 267 258 249 249 237 230 246 256 274 277 260 256 294 290 293 304 313 329 333 328 330 327 327 334 336 335 339 345 346 346 349 347 338 340 19 30 22 10 355 336 308 286 271 261 256 253 249 243 237 232 228 224 219 214 212 209 208 207 207 208 208 208 208 207 206 204 204 207 210 211 211 211 211
119 234 222 195 231 244 233 235 243 238 242 250 257 265 265 255 253 252 241 242 250 250 264 279 292 290 287 289 293 303 317 315 311 316 317 320 328 331 333 336 340 341 341 345 348 343 329 326 356 16 10 358 347 332 312 286 269 258 249 244 240 237 233 225 221 217 214 213 212 211 211 210 210 210 209 208 206 204 204 205 207 209 209 210 209 210
133 235 223 185 237 255 244 235 233 235 247 254 254 262 269 264 257 253 244 242 249 252 263 280 285 277 274 280 286 297 300 291 299 313 313 317 326 328 331 332 333 335 336 341 348 349 339 320 311 325 349 359 4 355 340 316 293 275 257 247 239 235 233 227 223 219 217 217 216 215 216 214 213 211 209 206 204 203 204 205 207 208 208 208 209 209
179 233 217 165 229 262 249 234 225 228 246 261 266 266 266 263 256 246 240 236 238 246 255 265 273 272 266 271 281 288 288 290 308 314 309 313 322 325 326 326 327 330 333 340 347 351 350 339 318 305 305 322 359 8 359 347 324 299 276 259 246 238 234 231 228 224 222 220 219 219 218 216 214 211 207 204 202 202 204 205 206 207 207 208 209 210
190 223 179 146 204 259 257 223 192 198 262 287 276 260 246 243 244 239 234 229 230 239 246 247 255 265 268 274 280 275 281 303 309 304 304 311 316 318 318 320 324 327 331 340 348 352 355 353 344 326 308 301 307 326 344 350 343 331 313 284 262 247 238 234 231 228 226 224 223 222 219 214 211 207 204 202 201 202 203 204 205 206 207 209 210 211
172 164 161 161 200 255 271 121 133 104 52 288 263 251 238 233 242 249 247 241 237 235 244 249 248 259 270 281 285 282 288 297 291 294 303 307 307 306 308 315 322 326 330 338 345 350 353 355 355 352 338 314 303 299 303 318 342 352 345 325 290 261 245 240 235 230 228 227 227 226 221 214 208 205 202 202 202 203 203 203 205 207 209 211 210 209
165 165 181 171 193 247 181 116 107 95 185 238 258 273 231 221 228 238 240 240 238 233 241 251 253 259 266 272 278 283 287 283 284 291 294 294 295 297 302 310 314 318 328 336 341 345 349 351 354 357 357 345 320 304 295 295 320 345 344 338 318 280 258 248 241 235 232 230 230 229 223 215 209 205 204 204 204 203 203 203 206 209 210 211 209 206
171 175 180 165 187 212 130 103 112 191 213 248 299 312 246 227 228 236 243 246 246 248 247 248 253 259 264 270 274 279 283 283 284 284 284 286 289 291 295 299 301 312 328 338 340 340 342 345 349 352 356 357 349 338 315 288 294 321 330 329 324 307 279 259 248 243 240 237 234 232 226 218 212 208 206 206 205 204 204 205 208 210 211 210 208 206
174 171 172 171 180 184 154 159 202 235 274 299 296 277 252 242 236 238 254 254 245 247 251 251 256 259 264 272 274 274 279 283 282 280 283 286 285 283 286 294 306 318 331 339 341 340 338 339 343 345 347 350 353 355 352 316 280 281 301 304 308 317 304 275 258 250 246 244 241 236 229 221 214 210 207 206 205 205 205 207 209 210 210 209 208 207
173 163 173 191 189 192 216 216 215 298 308 292 275 259 228 217 219 208 236 252 238 237 249 254 257 259 262 267 270 273 280 285 286 283 282 277 271 281 328 331 328 332 338 340 337 336 334 332 333 337 338 340 345 349 353 350 324 266 273 281 281 296 298 287 278 265 254 249 246 241 232 223 216 212 208 206 207 208 208 209 210 210 209 209 209 208
180 175 174 192 203 197 217 233 222 253 260 252 255 254 199 181 217 197 208 265 248 235 248 254 258 260 261 265 269 275 283 287 285 282 267 251 356 19 10 350 345 347 351 347 334 327 327 326 327 331 333 331 332 335 342 349 349 339 307 272 261 278 291 297 305 296 276 260 251 244 235 226 219 214 211 209 209 210 210 211 211 209 209 210 211 210
191 189 180 194 212 196 202 219 211 229 242 241 253 263 160 165 210 121 46 278 255 234 235 240 249 255 257 264 271 276 281 276 275 280 293 321 350 9 1 353 354 354 356 354 341 329 325 325 325 327 328 326 323 323 328 337 344 349 339 285 263 272 289 301 308 308 301 287 266 249 239 230 223 218 216 214 213 213 214 213 212 211 212 212 213 213
201 201 192 200 212 206 211 219 212 234 247 240 250 265 126 156 174 82 58 260 248 225 227 230 239 250 256 265 271 266 244 256 276 326 319 318 341 354 345 344 349 350 352 352 345 338 331 325 322 322 325 327 325 320 318 319 324 330 325 304 293 300 310 304 294 293 296 293 279 261 248 239 232 227 222 218 216 217 218 217 215 215 215 215 216 216
201 203 200 203 212 211 213 221 231 240 241 244 252 222 128 130 114 117 220 254 250 212 222 220 226 243 251 256 255 229 223 270 328 343 319 320 334 334 330 334 339 343 348 348 345 342 336 331 327 323 323 325 324 320 315 312 313 315 309 303 304 312 318 304 286 283 282 279 275 268 258 249 242 236 231 225 221 221 222 222 221 220 218 218 219 219
190 199 203 204 209 210 207 220 248 256 236 239 240 178 138 126 119 220 238 265 254 233 230 226 235 246 246 241 235 233 253 294 319 315 310 324 335 332 326 323 325 331 338 342 343 341 337 333 330 328 323 319 319 320 316 312 312 310 305 299 294 293 293 290 287 289 284 275 269 265 261 255 248 242 237 233 228 226 225 225 225 223 222 222 222 222
184 181 196 201 198 197 202 212 235 247 232 225 217 161 141 172 227 236 244 260 252 244 242 240 242 243 237 232 237 249 271 294 301 297 301 314 329 335 331 324 324 327 331 336 342 345 344 336 331 333 331 322 316 316 316 313 313 311 307 301 294 287 283 279 278 279 281 278 269 260 256 254 249 243 239 236 235 232 230 229 228 227 226 225 224 224
168 171 191 202 193 188 200 206 213 234 230 208 197 192 193 208 225 235 236 241 248 247 242 238 240 239 235 243 257 261 266 285 294 292 296 303 317 330 332 331 330 327 327 333 337 343 347 343 337 336 336 328 317 312 314 315 314 314 314 309 301 291 281 276 273 270 270 273 269 261 254 249 245 242 238 235 235 235 234 233 232 232 232 231 230 228
188 189 191 198 195 195 208 217 222 239 236 191 194 212 212 212 227 240 238 237 247 250 241 233 239 248 252 260 271 269 262 270 282 285 287 291 302 317 324 327 329 327 328 330 331 336 341 342 341 339 335 332 323 312 311 314 314 318 321 319 312 301 289 280 274 268 264 263 262 258 253 248 243 240 237 235 233 233 233 233 233 234 234 234 233 231
199 187 165 145 190 209 244 267 243 241 233 200 203 222 227 223 230 239 239 241 248 252 241 235 250 266 269 269 274 273 268 271 277 277 275 279 289 303 315 321 323 325 327 328 329 333 335 335 337 339 337 336 333 320 311 311 316 322 325 325 321 312 300 289 279 271 264 258 255 252 249 246 242 238 238 237 234 232 232 232 233 233 232 232 231 230
199 179 162 140 161 179 222 238 228 230 225 204 205 221 230 231 233 235 238 241 243 243 243 249 263 270 268 266 266 263 262 269 274 272 272 279 287 295 308 318 320 322 325 327 328 330 330 329 331 336 339 340 338 333 323 314 315 322 326 326 324 317 307 296 284 273 264 256 251 247 244 243 241 238 238 238 237 235 232 231 231 232 231 229 227 226
185 172 163 163 173 176 210 223 208 211 217 207 205 212 218 223 225 227 231 239 244 247 252 258 265 267 265 259 254 251 254 260 263 265 273 280 284 291 301 309 313 317 320 322 321 322 323 324 325 330 336 339 339 338 334 324 318 319 322 323 320 316 311 302 289 276 264 253 246 243 241 239 238 238 237 237 239 238 234 230 228 227 226 226 225 223
132 155 165 174 181 196 258 245 170 155 214 216 212 218 226 233 237 240 245 254 259 260 259 256 259 264 263 257 248 245 247 249 248 257 272 276 277 283 290 295 303 312 313 314 315 315 317 319 321 324 328 334 338 341 339 333 326 322 322 322 320 317 315 310 301 287 270 255 244 240 238 237 234 234 235 236 238 240 238 235 230 227 224 223 222 222
131 163 168 151 170 214 245 227 183 172 232 231 226 237 248 256 262 264 263 263 265 267 267 263 259 258 257 254 252 248 244 240 240 249 262 269 272 276 283 291 299 307 309 309 311 312 313 314 318 320 322 327 336 340 340 338 334 330 327 324 321 320 318 314 309 300 287 269 252 244 240 238 234 231 231 233 235 237 239 238 236 233 230 227 225 225
182 181 164 162 190 216 224 194 159 158 221 250 252 260 267 269 266 264 263 264 267 273 276 270 264 261 256 252 251 245 236 233 240 248 254 262 270 276 286 298 303 308 312 312 311 313 314 313 314 317 318 323 332 337 337 337 337 335 333 327 321 320 319 316 311 306 299 285 266 253 246 242 238 233 230 230 231 233 236 237 237 235 234 231 230 229
Height
1478 1481 1479 1474 1471 1471 1473 1475 1474 1474 1474 1475 1475 1475 1473 1471 1464 1459 1462 1461 1461 1461 1455 1452 1449 1442 1444 1446 1445 1443 1440 1439 1437 1437 1436 1434 1432 1430 1430 1429 1428 1428 1426 1428 1430 1430 1432 1434 1435 1437 1438 1439 1440 1441 1443 1444 1445 1446 1448 1450 1452 1455 1458 1460 1462 1464 1466 1467 1469 1471 1473 1475 1478 1480 1482 1484 1486 1488 1489 1490 1492 1493 1495 1496 1497 1498
1480 1481 1474 1469 1469 1471 1473 1473 1473 1474 1475 1476 1476 1476 1474 1472 1466 1462 1463 1462 1462 1461 1451 1448 1450 1443 1441 1443 1443 1443 1439 1432 1430 1434 1433 1430 1428 1426 1426 1425 1424 1425 1425 1425 1426 1427 1429 1430 1431 1433 1433 1434 1435 1436 1437 1438 1439 1441 1442 1444 1447 1450 1452 1454 1457 1459 1460 1462 1464 1466 1469 1472 1475 1477 1479 1481 1483 1485 1486 1487 1488 1489 1491 1493 1494 1495
1482 1478 1469 1469 1471 1471 1471 1471 1472 1473 1474 1476 1476 1476 1472 1466 1464 1464 1463 1461 1462 1462 1452 1450 1450 1440 1437 1441 1439 1438 1434 1425 1425 1430 1428 1426 1425 1423 1421 1421 1421 1421 1421 1421 1421 1422 1424 1425 1427 1428 1429 1430 1430 1432 1432 1433 1435 1436 1437 1439 1442 1445 1447 1449 1452 1454 1456 1458 1461 1464 1468 1471 1473 1475 1477 1479 1481 1482 1482 1483 1484 1486 1487 1489 1491 1492
1479 1471 1466 1469 1470 1470 1471 1470 1471 1472 1474 1475 1475 1476 1468 1461 1465 1465 1461 1461 1461 1459 1454 1453 1451 1439 1435 1439 1435 1432 1429 1423 1423 1425 1422 1422 1421 1418 1417 1418 1417 1417 1416 1415 1415 1417 1419 1420 1422 1422 1424 1425 1426 1427 1427 1429 1430 1431 1432 1434 1437 1439 1441 1445 1447 1450 1453 1455 1459 1462 1466 1469 1471 1472 1474 1476 1477 1477 1478 1479 1480 1482 1484 1486 1487 1489
1474 1465 1464 1468 1467 1468 1469 1469 1471 1473 1474 1472 1471 1470 1464 1460 1466 1464 1461 1461 1458 1456 1453 1455 1452 1434 1427 1433 1428 1425 1427 1422 1420 1419 1417 1418 1416 1413 1414 1413 1413 1413 1412 1411 1409 1412 1414 1414 1415 1416 1418 1420 1420 1421 1422 1424 1425 1426 1427 1429 1432 1434 1437 1440 1443 1446 1449 1452 1455 1458 1461 1464 1465 1467 1469 1470 1471 1472 1473 1474 1476 1478 1480 1483 1484 1486
1469 1461 1465 1467 1465 1466 1466 1466 1468 1470 1470 1468 1465 1463 1460 1460 1464 1464 1462 1461 1461 1457 1451 1454 1453 1428 1413 1423 1422 1418 1422 1417 1413 1415 1411 1409 1409 1409 1409 1407 1407 1408 1408 1407 1405 1407 1409 1409 1410 1411 1412 1414 1414 1415 1417 1419 1421 1421 1423 1425 1428 1430 1432 1436 1439 1442 1445 1447 1449 1451 1453 1455 1457 1459 1461 1462 1464 1467 1469 1470 1472 1475 1477 1480 1481 1483
1462 1457 1462 1464 1463 1464 1464 1464 1463 1464 1468 1464 1456 1455 1457 1461 1464 1463 1461 1463 1463 1457 1448 1451 1455 1433 1409 1411 1414 1412 1417 1411 1408 1411 1403 1399 1402 1403 1403 1401 1402 1403 1402 1402 1401 1401 1402 1402 1403 1404 1405 1407 1407 1410 1413 1415 1416 1417 1419 1422 1424 1426 1428 1431 1434 1437 1440 1442 1444 1446 1448 1450 1451 1453 1455 1458 1462 1464 1466 1468 1470 1472 1474 1476 1478 1480
1455 1456 1460 1461 1461 1462 1462 1461 1457 1459 1463 1456 1449 1451 1454 1458 1460 1459 1459 1461 1457 1452 1450 1449 1452 1442 1411 1398 1404 1408 1412 1410 1405 1405 1397 1393 1397 1397 1397 1397 1397 1397 1396 1396 1394 1393 1395 1395 1396 1397 1398 1400 1402 1405 1408 1409 1411 1413 1415 1417 1419 1421 1423 1426 1430 1432 1434 1436 1438 1441 1443 1446 1448 1449 1452 1456 1459 1461 1463 1465 1467 1469 1471 1473 1475 1477
1451 1456 1456 1458 1459 1459 1457 1454 1452 1455 1457 1450 1447 1450 1450 1451 1454 1454 1455 1457 1454 1452 1453 1447 1448 1446 1413 1391 1401 1407 1408 1406 1397 1395 1393 1391 1392 1391 1392 1393 1391 1390 1389 1389 1388 1386 1388 1389 1390 1391 1392 1395 1397 1400 1403 1404 1406 1409 1411 1414 1415 1417 1419 1422 1425 1427 1429 1431 1434 1437 1439 1441 1444 1446 1450 1453 1456 1458 1460 1462 1464 1466 1468 1470 1472 1474
1453 1454 1454 1456 1456 1454 1451 1448 1448 1451 1452 1447 1447 1450 1448 1448 1449 1451 1453 1455 1455 1454 1451 1444 1444 1445 1414 1387 1399 1407 1402 1397 1388 1388 1391 1389 1389 1388 1387 1388 1386 1385 1384 1383 1382 1381 1382 1384 1385 1387 1389 1391 1392 1395 1398 1399 1402 1405 1407 1409 1411 1412 1415 1417 1420 1422 1424 1427 1429 1432 1434 1436 1440 1443 1446 1449 1451 1454 1456 1458 1460 1462 1464 1467 1469 1471
1453 1453 1454 1455 1453 1450 1447 1446 1446 1447 1448 1445 1447 1449 1449 1448 1446 1449 1451 1451 1455 1453 1445 1437 1437 1442 1419 1386 1389 1397 1390 1388 1385 1385 1387 1386 1386 1384 1382 1382 1381 1380 1379 1378 1378 1377 1378 1379 1381 1383 1384 1385 1387 1390 1393 1394 1397 1399 1401 1404 1405 1408 1411 1413 1416 1418 1420 1423 1425 1427 1429 1432 1435 1438 1441 1444 1446 1449 1451 1453 1455 1458 1461 1463 1465 1467
1452 1453 1452 1450 1448 1447 1446 1446 1444 1443 1444 1444 1446 1449 1452 1450 1446 1449 1452 1451 1455 1447 1433 1428 1431 1441 1425 1389 1383 1388 1381 1384 1386 1382 1383 1383 1382 1380 1379 1378 1377 1377 1375 1374 1375 1374 1374 1375 1376 1378 1378 1380 1383 1385 1386 1388 1390 1393 1396 1398 1401 1403 1406 1408 1411 1414 1416 1419 1420 1422 1425 1428 1431 1433 1436 1438 1441 1444 1446 1449 1451 1454 1457 1459 1462 1464
1449 1448 1447 1445 1442 1444 1445 1446 1445 1443 1443 1443 1444 1448 1455 1452 1447 1450 1449 1445 1447 1436 1422 1422 1428 1436 1424 1393 1384 1388 1383 1384 1384 1381 1383 1383 1380 1378 1377 1376 1375 1374 1374 1372 1372 1371 1371 1372 1372 1373 1374 1376 1378 1379 1381 1383 1385 1387 1390 1393 1395 1397 1400 1403 1406 1409 1411 1414 1416 1418 1420 1423 1426 1429 1431 1434 1437 1440 1442 1445 1448 1450 1452 1455 1457 1460
1448 1442 1441 1442 1440 1440 1441 1443 1444 1442 1441 1441 1441 1444 1450 1448 1444 1445 1440 1435 1437 1427 1417 1421 1427 1429 1418 1389 1378 1384 1385 1383 1381 1379 1379 1379 1377 1376 1374 1374 1373 1372 1371 1370 1369 1369 1369 1369 1369 1370 1371 1373 1374 1375 1377 1379 1380 1383 1385 1387 1390 1392 1395 1398 1400 1403 1406 1407 1410 1413 1416 1418 1421 1424 1426 1429 1433 1436 1439 1441 1444 1446 1448 1451 1453 1456
1453 1445 1440 1441 1440 1440 1440 1438 1438 1436 1436 1435 1432 1434 1437 1435 1434 1433 1428 1427 1428 1420 1416 1423 1425 1418 1403 1379 1370 1378 1380 1379 1378 1375 1374 1375 1374 1374 1373 1372 1371 1370 1369 1368 1367 1367 1366 1367 1367 1367 1368 1369 1371 1372 1374 1375 1377 1378 1380 1382 1384 1387 1390 1393 1395 1397 1400 1402 1405 1408 1411 1414 1416 1419 1422 1426 1429 1432 1435 1437 1440 1443 1446 1448 1451 1455
1454 1447 1440 1441 1440 1441 1442 1438 1437 1437 1435 1431 1428 1430 1429 1424 1423 1422 1417 1416 1418 1416 1415 1419 1415 1402 1387 1372 1369 1375 1374 1374 1376 1373 1373 1374 1370 1370 1370 1368 1367 1366 1366 1366 1364 1364 1365 1365 1365 1365 1366 1366 1367 1369 1370 1371 1373 1374 1375 1378 1380 1382 1385 1388 1390 1392 1395 1398 1401 1403 1406 1409 1412 1415 1418 1421 1424 1427 1431 1434 1437 1440 1443 1446 1450 1453
1458 1448 1442 1443 1440 1439 1442 1439 1438 1439 1436 1429 1426 1425 1420 1416 1417 1419 1417 1412 1415 1418 1408 1402 1403 1399 1389 1373 1364 1370 1371 1372 1374 1371 1370 1370 1368 1368 1366 1363 1364 1364 1363 1363 1361 1361 1362 1364 1364 1363 1363 1363 1363 1365 1366 1367 1368 1370 1372 1374 1376 1378 1381 1383 1385 1388 1392 1394 1396 1398 1401 1404 1407 1410 1413 1416 1419 1423 1427 1431 1434 1437 1441 1444 1447 1449
1462 1455 1446 1444 1442 1438 1439 1439 1435 1434 1434 1433 1429 1422 1417 1415 1416 1420 1422 1415 1415 1417 1401 1388 1393 1398 1394 1375 1361 1366 1369 1368 1369 1367 1365 1366 1365 1366 1363 1360 1362 1361 1360 1360 1358 1359 1359 1360 1361 1360 1360 1361 1360 1361 1362 1364 1365 1367 1368 1370 1372 1374 1376 1378 1381 1384 1387 1389 1391 1393 1395 1399 1402 1405 1409 1412 1416 1420 1424 1427 1430 1434 1437 1440 1444 1446
1465 1463 1449 1443 1444 1440 1438 1440 1434 1428 1430 1433 1430 1425 1425 1424 1420 1419 1420 1413 1410 1410 1398 1387 1387 1389 1388 1375 1363 1366 1367 1366 1368 1367 1366 1365 1364 1364 1362 1360 1360 1359 1358 1357 1355 1356 1356 1356 1356 1356 1357 1357 1357 1358 1359 1361 1363 1364 1365 1366 1368 1370 1372 1375 1378 1380 1383 1385 1387 1389 1391 1395 1398 1402 1405 1408 1412 1416 1419 1423 1426 1430 1434 1437 1440 1442
1464 1467 1456 1444 1443 1442 1438 1439 1439 1433 1431 1431 1429 1428 1428 1426 1421 1415 1412 1406 1404 1402 1394 1387 1385 1381 1378 1371 1365 1367 1369 1367 1367 1366 1365 1363 1361 1361 1360 1359 1358 1356 1356 1355 1353 1353 1353 1353 1353 1353 1353 1354 1355 1356 1357 1358 1360 1361 1363 1364 1365 1367 1369 1372 1374 1376 1379 1381 1383 1385 1388 1391 1394 1398 1401 1405 1409 1412 1415 1419 1423 1426 1430 1434 1436 1439
1463 1466 1461 1448 1445 1448 1443 1438 1439 1440 1438 1437 1437 1436 1433 1430 1427 1420 1412 1403 1401 1400 1391 1386 1382 1373 1367 1365 1364 1367 1369 1369 1368 1367 1366 1364 1360 1359 1358 1358 1357 1354 1354 1353 1351 1350 1349 1350 1350 1351 1351 1351 1353 1354 1354 1356 1357 1358 1360 1361 1363 1364 1366 1368 1370 1372 1375 1377 1379 1381 1383 1387 1390 1394 1398 1401 1405 1409 1413 1416 1420 1424 1428 1430 1433 1435
1461 1462 1460 1454 1451 1451 1445 1438 1438 1440 1441 1441 1441 1441 1440 1439 1437 1431 1419 1403 1401 1403 1394 1387 1381 1368 1360 1363 1368 1373 1376 1376 1377 1377 1375 1372 1368 1365 1362 1360 1357 1354 1353 1351 1349 1349 1347 1346 1347 1348 1349 1349 1350 1351 1352 1353 1354 1355 1356 1358 1360 1362 1363 1365 1367 1369 1371 1373 1375 1378 1380 1384 1388 1391 1395 1398 1402 1405 1409 1413 1417 1421 1424 1427 1430 1432
1457 1458 1459 1457 1453 1448 1443 1440 1438 1439 1439 1439 1439 1440 1442 1444 1443 1443 1436 1422 1422 1424 1409 1397 1387 1370 1363 1370 1376 1379 1383 1383 1383 1382 1379 1376 1373 1369 1365 1361 1357 1354 1350 1348 1346 1346 1345 1344 1344 1345 1345 1347 1348 1348 1349 1350 1351 1352 1353 1355 1357 1358 1360 1362 1364 1366 1368 1370 1372 1375 1378 1382 1385 1388 1391 1394 1398 1402 1406 1410 1414 1418 1421 1424 1427 1429
1453 1456 1458 1456 1451 1446 1441 1439 1437 1436 1437 1438 1438 1440 1444 1445 1444 1447 1446 1441 1443 1437 1420 1410 1394 1369 1363 1373 1378 1379 1381 1382 1381 1380 1380 1378 1373 1370 1367 1363 1359 1355 1351 1347 1344 1343 1343 1342 1342 1343 1343 1345 1346 1346 1347 1348 1349 1350 1351 1352 1353 1355 1358 1360 1362 1363 1365 1367 1370 1373 1376 1379 1382 1385 1388 1391 1395 1399 1404 1408 1411 1415 1418 1421 1424 1426
1450 1453 1456 1458 1456 1451 1444 1437 1434 1435 1436 1437 1439 1442 1444 1445 1445 1447 1447 1447 1447 1434 1424 1428 1413 1379 1365 1374 1380 1382 1383 1382 1381 1381 1381 1380 1376 1372 1368 1365 1362 1358 1354 1350 1346 1343 1343 1342 1342 1342 1343 1343 1344 1345 1346 1346 1347 1347 1348 1349 1351 1353 1356 1357 1359 1361 1362 1365 1368 1370 1373 1376 1379 1382 1386 1389 1393 1397 1401 1405 1408 1412 1415 1418 1420 1423
1448 1449 1450 1455 1459 1457 1448 1437 1432 1435 1437 1439 1440 1441 1442 1442 1444 1447 1446 1448 1445 1430 1425 1434 1425 1397 1379 1378 1380 1384 1387 1386 1384 1383 1382 1380 1378 1374 1370 1367 1364 1360 1357 1354 1351 1348 1346 1344 1344 1344 1343 1344 1344 1344 1345 1345 1345 1346 1346 1348 1349 1351 1353 1355 1356 1358 1360 1363 1365 1368 1371 1374 1377 1380 1384 1388 1392 1395 1399 1403 1406 1409 1412 1414 1417 1420
1447 1446 1444 1447 1449 1447 1442 1433 1430 1435 1439 1439 1438 1438 1439 1440 1440 1442 1444 1444 1441 1434 1429 1427 1422 1410 1394 1384 1384 1386 1389 1390 1388 1387 1385 1382 1379 1375 1372 1369 1367 1363 1360 1357 1354 1352 1350 1348 1347 1346 1345 1344 1344 1343 1344 1344 1344 1345 1345 1346 1348 1349 1351 1352 1354 1357 1359 1361 1364 1366 1369 1372 1375 1379 1383 1386 1390 1394 1397 1400 1404 1406 1409 1412 1414 1417
1445 1444 1441 1442 1440 1436 1437 1434 1433 1437 1438 1437 1436 1435 1435 1437 1437 1438 1440 1437 1434 1437 1431 1418 1417 1418 1402 1389 1389 1391 1391 1392 1392 1390 1388 1385 1382 1378 1375 1372 1369 1366 1363 1360 1357 1354 1353 1351 1350 1349 1347 1345 1344 1344 1343 1344 1344 1344 1345 1345 1347 1348 1349 1351 1353 1355 1358 1360 1362 1365 1368 1371 1375 1378 1382 1385 1389 1392 1395 1398 1401 1404 1407 1409 1411 1414
1440 1440 1437 1440 1438 1434 1435 1435 1434 1436 1435 1434 1434 1432 1432 1434 1434 1435 1435 1431 1431 1435 1429 1415 1417 1421 1407 1392 1391 1394 1396 1395 1393 1391 1389 1386 1385 1381 1377 1374 1372 1369 1366 1363 1361 1357 1355 1354 1352 1351 1350 1347 1346 1345 1344 1344 1343 1343 1344 1344 1345 1347 1348 1350 1352 1354 1357 1359 1361 1364 1367 1371 1374 1377 1380 1383 1386 1390 1393 1396 1399 1401 1404 1406 1409 1411
1435 1435 1434 1438 1438 1433 1433 1433 1433 1434 1435 1434 1433 1431 1430 1430 1430 1429 1428 1427 1427 1430 1426 1418 1418 1418 1406 1394 1389 1392 1397 1395 1392 1391 1389 1386 1386 1382 1379 1377 1374 1372 1370 1367 1364 1360 1357 1356 1354 1353 1351 1349 1348 1347 1345 1345 1344 1344 1344 1344 1345 1346 1347 1350 1352 1354 1356 1358 1361 1364 1367 1370 1373 1375 1378 1381 1384 1388 1391 1394 1397 1399 1401 1404 1406 1409
1432 1431 1431 1436 1439 1432 1427 1430 1433 1435 1436 1434 1433 1432 1429 1427 1426 1425 1424 1423 1423 1424 1421 1418 1416 1410 1399 1392 1391 1392 1394 1392 1390 1390 1387 1386 1386 1383 1380 1378 1375 1373 1372 1369 1366 1362 1359 1357 1355 1353 1352 1351 1349 1348 1346 1345 1345 1344 1344 1345 1346 1347 1348 1350 1352 1354 1356 1358 1361 1364 1366 1368 1371 1373 1376 1379 1383 1386 1389 1392 1394 1396 1399 1401 1404 1406
1429 1431 1430 1434 1439 1432 1424 1429 1434 1435 1436 1437 1433 1428 1425 1422 1420 1418 1417 1416 1417 1418 1416 1414 1413 1404 1392 1389 1391 1390 1390 1391 1389 1388 1387 1386 1385 1384 1381 1379 1377 1375 1372 1370 1367 1364 1361 1358 1355 1353 1352 1351 1350 1349 1348 1347 1346 1345 1345 1345 1346 1347 1348 1349 1351 1354 1356 1358 1361 1362 1364 1367 1369 1372 1375 1378 1381 1384 1387 1389 1391 1394 1396 1398 1401 1403
1424 1428 1429 1433 1437 1430 1426 1431 1432 1434 1441 1438 1422 1412 1413 1415 1416 1414 1412 1411 1409 1410 1410 1407 1405 1399 1389 1388 1390 1387 1388 1390 1388 1386 1387 1385 1384 1384 1382 1380 1378 1375 1373 1370 1368 1365 1362 1359 1356 1354 1352 1351 1350 1349 1348 1347 1346 1346 1345 1345 1346 1347 1348 1349 1351 1353 1355 1357 1359 1361 1363 1365 1367 1370 1373 1376 1379 1382 1384 1387 1389 1391 1393 1396 1398 1400
1421 1423 1427 1431 1431 1429 1431 1431 1431 1439 1441 1424 1404 1400 1405 1408 1410 1409 1406 1404 1402 1402 1402 1399 1396 1394 1389 1388 1389 1386 1385 1387 1386 1385 1386 1385 1383 1382 1380 1380 1379 1376 1373 1371 1368 1365 1363 1359 1356 1354 1352 1351 1349 1348 1347 1346 1346 1346 1345 1346 1346 1346 1347 1348 1350 1351 1353 1355 1357 1359 1361 1364 1366 1369 1372 1374 1377 1379 1382 1384 1386 1389 1391 1393 1396 1397
1418 1420 1425 1427 1425 1428 1432 1432 1432 1434 1426 1409 1399 1401 1403 1401 1401 1402 1401 1399 1399 1398 1397 1394 1392 1391 1387 1385 1386 1385 1383 1383 1383 1383 1383 1383 1382 1380 1378 1378 1377 1374 1372 1370 1367 1365 1363 1359 1356 1354 1351 1350 1348 1346 1345 1344 1344 1345 1345 1345 1346 1346 1346 1347 1348 1350 1351 1353 1355 1357 1359 1362 1364 1367 1370 1372 1375 1377 1379 1382 1384 1386 1389 1391 1393 1395
1411 1416 1419 1421 1421 1424 1429 1429 1424 1417 1410 1406 1403 1399 1398 1399 1399 1401 1402 1398 1395 1395 1394 1392 1390 1388 1386 1383 1382 1382 1380 1379 1380 1380 1380 1381 1380 1378 1377 1375 1374 1373 1371 1369 1367 1365 1363 1360 1357 1355 1352 1350 1347 1345 1343 1342 1343 1343 1344 1345 1346 1346 1347 1347 1348 1349 1350 1351 1353 1355 1357 1360 1363 1365 1367 1370 1372 1374 1377 1379 1382 1384 1386 1388 1391 1393
1403 1409 1412 1415 1416 1416 1420 1422 1419 1415 1413 1409 1397 1387 1389 1392 1392 1397 1400 1394 1390 1392 1392 1390 1389 1386 1384 1381 1379 1379 1379 1378 1377 1377 1378 1378 1377 1376 1375 1374 1373 1372 1370 1368 1366 1365 1363 1361 1358 1355 1353 1350 1347 1345 1343 1342 1343 1343 1344 1345 1346 1346 1347 1347 1348 1348 1348 1350 1351 1353 1355 1358 1360 1363 1365 1367 1369 1371 1374 1377 1379 1381 1384 1386 1388 1390
1396 1401 1404 1408 1409 1409 1414 1419 1419 1419 1414 1401 1386 1377 1381 1388 1388 1391 1397 1395 1389 1389 1389 1387 1386 1384 1381 1379 1378 1378 1379 1378 1375 1375 1376 1376 1375 1374 1373 1373 1372 1370 1369 1367 1364 1363 1362 1360 1358 1356 1353 1350 1349 1347 1345 1345 1344 1344 1344 1345 1345 1345 1346 1346 1347 1347 1348 1348 1350 1351 1353 1355 1358 1360 1362 1364 1366 1369 1372 1374 1377 1379 1381 1383 1385 1387
1393 1395 1398 1403 1404 1406 1411 1414 1412 1409 1400 1387 1377 1374 1381 1389 1388 1391 1402 1400 1385 1380 1382 1382 1382 1381 1379 1378 1377 1378 1381 1379 1374 1373 1375 1374 1373 1372 1371 1371 1370 1369 1368 1366 1364 1362 1360 1359 1358 1356 1354 1352 1350 1348 1347 1346 1345 1345 1344 1344 1344 1344 1344 1345 1346 1346 1347 1348 1349 1350 1351 1353 1355 1357 1360 1362 1365 1367 1370 1372 1375 1377 1379 1381 1383 1385
1390 1391 1395 1399 1399 1398 1402 1404 1402 1396 1386 1377 1374 1377 1383 1386 1386 1398 1408 1394 1372 1370 1376 1376 1377 1377 1376 1376 1376 1376 1378 1377 1373 1373 1373 1372 1371 1371 1370 1369 1368 1367 1366 1365 1363 1361 1359 1358 1358 1356 1355 1353 1350 1348 1347 1346 1346 1345 1344 1344 1343 1343 1344 1344 1345 1345 1345 1346 1347 1348 1349 1351 1353 1355 1357 1360 1363 1366 1368 1371 1373 1375 1377 1379 1381 1383
1384 1385 1387 1390 1391 1391 1393 1395 1391 1383 1375 1370 1372 1376 1381 1384 1391 1401 1396 1376 1364 1370 1374 1372 1374 1375 1373 1373 1373 1372 1372 1372 1371 1372 1371 1370 1369 1369 1368 1367 1367 1366 1365 1363 1361 1359 1358 1357 1357 1356 1355 1353 1351 1349 1347 1345 1345 1344 1343 1342 1342 1343 1343 1343 1343 1343 1343 1343 1344 1346 1347 1349 1351 1353 1355 1359 1362 1364 1367 1369 1371 1373 1375 1377 1379 1380
1378 1380 1379 1381 1383 1384 1385 1386 1386 1378 1367 1363 1368 1373 1378 1385 1390 1385 1372 1364 1367 1371 1370 1370 1371 1370 1369 1370 1369 1369 1369 1369 1369 1370 1369 1368 1368 1367 1366 1366 1365 1364 1363 1362 1360 1358 1356 1355 1355 1356 1355 1354 1352 1349 1346 1345 1343 1342 1341 1341 1340 1340 1341 1341 1341 1342 1342 1342 1342 1343 1344 1346 1348 1350 1353 1356 1358 1361 1364 1366 1369 1371 1373 1375 1376 1378
1359 1367 1372 1371 1373 1378 1382 1385 1384 1370 1354 1352 1364 1372 1374 1376 1374 1366 1362 1365 1368 1366 1367 1369 1366 1365 1367 1367 1366 1367 1367 1366 1366 1367 1366 1366 1366 1365 1365 1364 1363 1362 1360 1360 1359 1357 1355 1354 1354 1354 1354 1353 1351 1349 1346 1344 1342 1341 1339 1338 1338 1338 1338 1338 1339 1339 1340 1340 1340 1340 1341 1342 1344 1347 1349 1352 1355 1357 1360 1363 1366 1368 1370 1372 1374 1375
1350 1358 1363 1361 1360 1367 1372 1369 1359 1346 1340 1347 1358 1363 1362 1360 1359 1359 1362 1364 1364 1363 1365 1365 1363 1364 1366 1365 1365 1366 1365 1364 1364 1364 1363 1363 1363 1363 1363 1362 1362 1360 1358 1357 1356 1354 1354 1354 1353 1353 1353 1351 1349 1347 1345 1343 1341 1339 1338 1336 1335 1335 1334 1335 1335 1336 1337 1338 1339 1339 1340 1340 1341 1343 1346 1348 1351 1353 1356 1359 1361 1364 1366 1368 1370 1372
1339 1339 1341 1343 1344 1346 1348 1344 1338 1337 1342 1348 1351 1352 1353 1355 1356 1358 1360 1360 1360 1362 1362 1362 1362 1364 1364 1364 1364 1363 1362 1363 1363 1361 1361 1361 1360 1360 1360 1359 1358 1357 1355 1354 1353 1352 1351 1352 1352 1352 1351 1349 1347 1345 1343 1341 1339 1338 1336 1334 1333 1332 1331 1331 1332 1332 1333 1335 1336 1337 1338 1338 1339 1340 1342 1344 1346 1348 1351 1354 1356 1359 1361 1363 1366 1368
1327 1328 1332 1336 1340 1341 1341 1339 1339 1341 1343 1346 1348 1350 1352 1354 1355 1356 1357 1357 1358 1359 1360 1361 1361 1361 1362 1363 1362 1361 1361 1360 1360 1360 1360 1359 1358 1358 1357 1356 1355 1354 1352 1351 1350 1350 1349 1349 1350 1350 1348 1347 1345 1343 1341 1339 1337 1336 1335 1333 1332 1331 1329 1328 1329 1329 1330 1331 1332 1334 1335 1336 1337 1337 1339 1341 1343 1344 1347 1350 1352 1354 1357 1359 1361 1363
1326 1330 1332 1335 1340 1344 1343 1339 1338 1340 1341 1344 1347 1349 1349 1351 1353 1354 1354 1354 1355 1356 1358 1359 1359 1358 1359 1359 1359 1359 1359 1358 1357 1358 1358 1357 1357 1356 1355 1354 1353 1352 1351 1350 1349 1348 1348 1348 1348 1347 1345 1343 1341 1340 1338 1337 1335 1334 1333 1332 1330 1329 1328 1327 1326 1326 1327 1328 1329 1330 1331 1332 1334 1335 1336 1337 1339 1341 1343 1345 1348 1350 1352 1353 1355 1358
1323 1326 1331 1334 1336 1338 1337 1334 1335 1339 1340 1342 1344 1345 1346 1348 1350 1350 1352 1352 1353 1354 1355 1355 1356 1356 1355 1355 1356 1357 1356 1356 1356 1356 1356 1356 1356 1354 1354 1355 1354 1353 1352 1351 1350 1350 1349 1348 1347 1345 1342 1340 1338 1336 1334 1333 1332 1331 1330 1329 1328 1327 1326 1325 1325 1325 1325 1325 1326 1327 1328 1329 1330 1332 1333 1334 1335 1337 1339 1341 1343 1344 1346 1348 1351 1353
1320 1324 1328 1330 1332 1333 1332 1332 1335 1338 1339 1339 1341 1342 1343 1345 1347 1349 1350 1350 1350 1351 1351 1352 1353 1352 1352 1352 1353 1353 1354 1354 1355 1354 1355 1355 1354 1354 1354 1354 1354 1354 1352 1351 1351 1351 1349 1348 1347 1344 1340 1338 1335 1333 1331 1329 1328 1328 1327 1326 1325 1323 1322 1321 1321 1321 1322 1323 1324 1325 1325 1325 1326 1328 1329 1331 1332 1334 1336 1338 1340 1341 1343 1345 1348 1350
1318 1321 1323 1327 1331 1332 1329 1327 1330 1335 1336 1336 1337 1339 1341 1343 1345 1346 1347 1347 1347 1347 1347 1348 1349 1349 1349 1350 1350 1351 1351 1352 1352 1353 1353 1352 1352 1353 1353 1353 1353 1353 1351 1350 1350 1349 1348 1346 1344 1342 1339 1336 1333 1331 1329 1327 1325 1324 1323 1323 1321 1320 1318 1317 1317 1317 1318 1319 1320 1321 1322 1322 1322 1324 1326 1327 1329 1331 1333 1335 1337 1339 1340 1343 1345 1347
1312 1314 1317 1322 1325 1325 1323 1324 1327 1331 1332 1332 1334 1337 1339 1341 1343 1344 1344 1344 1344 1344 1344 1346 1346 1346 1347 1347 1347 1348 1348 1349 1350 1350 1350 1351 1351 1351 1351 1352 1351 1350 1349 1348 1346 1345 1344 1342 1340 1338 1336 1334 1332 1331 1328 1326 1323 1321 1320 1320 1319 1317 1317 1316 1315 1314 1314 1315 1315 1316 1317 1318 1319 1320 1322 1324 1326 1328 1330 1332 1334 1335 1337 1339 1342 1344